Regional Weather Roundup
Issued by NWS

Home | Current Version | Previous Version | Text Only | Print | Product List | Glossary Off
Versions: 1 2 3 4 5 6 7 8 9 10 11 12 13 14 15 16 17 18 19 20 21 22 23 24 25 26 27 28 29 30 31 32 33 34 35 36 37 38 39 40 41 42 43 44 45

000
ASUS45 KSLC 030210
RWRUT

UTAH REGIONAL WEATHER ROUNDUP
NATIONAL WEATHER SERVICE SALT LAKE CITY UT
800 PM MDT WED SEP 02 2015

UTZ001>011-023>025-030300-

NORTHERN UTAH

CITY           SKY/WX    TMP DP  RH WIND       PRES   REMARKS
BRIGHAM CITY   PTCLDY    84  42  23 CALM      29.84F
HILL AFB       PTCLDY    83  43  24 S8        29.88F
LOGAN          CLEAR     82  42  24 S5        29.86F
OGDEN          MOCLDY    84  41  21 SW5       29.85F
PROVO AIRPORT  PTCLDY    79  52  38 SE6       29.90F
SALT LAKE CITY MOCLDY    87  39  18 S9        29.84F
VERNAL         PTCLDY    76  38  25 S7        29.99S
WENDOVER       PTCLDY    88  36  15 SW13      29.80F
HEBER CITY     CLEAR     77  34  20 SW7       29.98F
WEST JORDAN    PTCLDY    84  39  20 S13       29.89S

$$

UTZ012>022-026-027-030300-

SOUTHERN/CENTRAL UTAH

CITY           SKY/WX    TMP DP  RH WIND       PRES   REMARKS
BLANDING       CLOUDY    77  42  27 S5        30.18R
BRYCE CANYON   PTCLDY    66  35  31 S9        30.23F
CEDAR CITY     PTCLDY    73  37  27 SW9       30.05F
DELTA          PTCLDY    83  26  12 S17       29.93S
HANKSVILLE     PTCLDY    86  39  19 SW12G20   29.96S
MILFORD        MOCLDY    81  35  19 SW20G31   29.99R
MOAB/CYNLANDS  CLEAR     82  45  27 SW7       29.94F
PRICE          CLOUDY    78  41  26 S6        30.03F
ST GEORGE      CLEAR     91  39  16 SW16      29.87F
KANAB          PTCLDY    72  48  43 CALM      30.08F

$$

REGIONAL REPORTS     COLORADO/ARIZONA

CITY           SKY/WX    TMP DP  RH WIND       PRES   REMARKS
CRAIG, CO      PTCLDY    65  54  67 SW3       30.11R
GRAND JUNCTION PTCLDY    80  50  34 SW3       30.00S
RIFLE          MOCLDY    73  57  57 SE7       30.07R
MONTROSE       MOCLDY    74  49  41 SE15      30.11S
CORTEZ         CLEAR     70  50  49 S7        30.13R
PAGE, AZ       CLOUDY    84  53  34 S15G24    29.97S
GRAND CANYON   PTCLDY    70  39  32 SW8       30.19S
KINGMAN        MOCLDY    86  35  16 SW16      29.95F
FLAGSTAFF      PTCLDY    66  40  38 SW8       30.25S

$$

REGIONAL REPORTS    NEVADA/IDAHO/WYOMING

CITY           SKY/WX    TMP DP  RH WIND       PRES   REMARKS
LAS VEGAS, NV  PTCLDY    96  39  13 S15       29.75S HX  91
ELY            CLEAR     78  27  15 S17       30.01S
ELKO           CLEAR     82  22  11 W12       29.84S
POCATELLO, ID  PTCLDY    74  35  24 S9        29.83S
BURLEY         PTCLDY    75  40  28 E5        29.78F
EVANSTON, WY   CLEAR     70  32  24 S12       30.09F
ROCK SPRINGS   MOCLDY    70  39  32 SW9       30.07F
KEMMERER       PTCLDY    68  32  26 W7        30.12S

$$


USA.gov is the U.S. government's official web portal to all federal, state and local government web resources and services.